エンケ彗星

2P/Encke (2017)

English version
Home page
Updated on August 6, 2017

---------------------------------------------------------------------

・ プロフィール

・ 写真集

・ 軌道要素

Epoch 2017 Mar. 28.0 TT = JDT 2457840.5
T 2017 Mar. 10.09242 TT                                 MPCW
q   0.3358952            (2000.0)            P               Q
n   0.29903622     Peri.  186.56347     -0.94518156     -0.31455208
a   2.2147269      Node   334.55954     +0.30811464     -0.77014237
e   0.8483356      Incl.   11.77818     +0.10815350     -0.55492136
P   3.30
From 2125 observations 2009 Aug. 15-2017 Feb. 26, mean residual 0".7.
     Nongravitational parameters A1 = +0.00, A2 = -0.0001.

・ 星図

・ 光度変化

        H = 14.2  G = 0.15                [    ,-110]  (              〜2016年11月20日)
        m1 =  9.8 + 5 logΔ + 25   log r  [-110, -45]  (2016年11月20日〜2017年 1月24日)
        m1 = 10.3 + 5 logΔ +  7.0 log r  [ -45,  20]  (2017年 1月24日〜2017年 3月30日)
        m1 = 12.3 + 5 logΔ + 15.7 log r  [  20, 110]  (2017年 3月30日〜2017年 6月28日)
        H = 14.2  G = 0.15                [ 110,    ]  (2017年 6月28日〜              )

---------------------------------------------------------------------

軌道要素はM.P.E.C. 2017-E59に掲載されたものです。
星図はステラナビゲータ Ver.8 (アストロアーツ) で作成したものです。
光度グラフはComet for Windowsで作成したものです。

---------------------------------------------------------------------

Copyright(C) Seiichi Yoshida (comet@aerith.net). All rights reserved.